Theta_e
274 276 277 280 282 285 288 290 291 292 292 292 292 292 290 290 287 285 286 288 290 294 302 305 308 311 315 317 318 318 318 313 309 315 319 320 320 313 314 317 319 319 318 317 317 316 317 317 318 318 319 319 320 321 322 322 322 322 323 325 326 326 326 326 326 327 326 326 326 327 326 326 328 327
274 275 278 280 281 285 287 289 291 291 292 292 291 292 292 293 290 288 286 287 292 293 298 303 306 303 310 315 315 316 316 307 309 317 319 319 320 311 311 315 317 317 316 317 318 317 316 316 316 316 317 318 319 321 320 320 321 322 323 326 326 327 326 326 326 326 326 326 326 327 327 327 327 328
273 274 276 279 281 284 286 288 291 291 290 291 292 292 293 293 293 291 290 287 291 295 295 299 304 305 309 313 314 315 314 307 312 318 319 319 311 308 311 312 315 315 315 316 316 316 316 316 315 315 316 317 319 320 319 319 320 322 323 325 326 326 326 326 325 326 326 325 326 327 327 327 326 328
275 276 277 278 280 283 285 288 290 290 290 291 292 291 292 293 294 293 291 290 289 294 296 299 302 306 309 310 311 311 312 309 307 317 318 316 305 314 315 310 311 312 314 315 315 315 315 315 315 315 315 317 318 318 318 318 320 321 321 323 325 325 323 323 323 323 324 324 324 325 325 325 325 326
274 275 277 278 279 282 283 285 289 290 290 291 291 292 292 292 293 293 292 290 290 293 296 297 299 303 307 308 311 309 309 308 313 312 315 312 315 316 316 315 308 310 312 313 314 314 314 315 315 314 314 315 317 317 319 319 318 319 321 322 323 324 325 324 324 321 321 323 323 323 323 324 324 324
271 272 273 276 281 284 285 286 288 290 290 290 290 291 291 292 292 294 293 291 291 290 294 295 298 300 306 308 309 309 308 309 310 310 311 313 315 316 316 315 313 309 311 312 313 314 314 314 315 314 314 315 316 317 318 317 316 317 319 319 319 319 322 323 323 321 320 322 322 323 323 323 324 323
271 272 273 275 278 280 282 285 288 290 290 291 290 291 292 292 293 294 294 293 291 291 292 295 296 299 302 307 306 308 310 310 312 310 310 313 314 314 314 314 313 308 311 312 313 313 313 314 314 313 313 314 314 315 316 315 314 315 317 317 318 317 318 318 320 319 319 321 323 323 322 323 323 322
271 272 273 275 277 280 281 284 287 289 290 290 290 291 291 292 293 294 294 295 293 293 293 295 296 299 300 303 308 309 309 309 310 310 311 313 313 312 313 313 312 310 310 311 312 312 312 312 313 313 313 313 313 314 314 313 313 314 314 314 315 315 316 316 318 318 318 320 322 323 322 322 322 322
273 274 275 276 278 279 280 283 286 288 289 290 290 290 291 292 293 293 294 294 294 294 294 295 297 299 300 301 305 307 306 307 309 308 309 310 311 311 311 312 312 307 309 309 309 310 311 311 312 312 313 313 313 313 313 313 312 312 313 312 313 314 315 315 315 315 315 316 318 319 321 321 320 320
271 271 271 274 276 278 279 281 284 288 288 289 289 289 290 291 292 292 292 293 293 294 295 295 296 298 300 298 301 305 308 307 305 305 306 308 309 308 308 309 310 311 312 312 312 309 309 308 311 312 312 312 312 313 312 312 311 309 309 310 311 312 313 313 313 313 314 314 314 315 318 320 319 318
271 271 272 272 274 276 278 280 282 286 287 288 288 289 289 290 291 291 292 292 293 293 294 295 297 298 300 299 300 304 307 307 307 305 304 303 305 308 308 306 308 310 312 310 309 311 311 309 310 309 310 311 311 311 311 311 310 308 307 308 310 311 312 312 312 312 312 312 312 312 312 315 318 318
271 272 272 273 274 275 278 281 282 285 287 288 288 289 290 290 290 290 290 291 292 293 294 295 295 298 299 298 302 304 305 304 303 305 305 301 302 304 306 306 307 309 310 310 310 308 308 308 309 308 309 309 310 310 309 308 307 305 307 308 310 310 310 311 311 311 310 310 310 311 310 311 313 317
271 272 273 275 275 277 280 282 283 285 288 288 287 288 289 288 289 289 290 290 291 292 294 294 297 297 298 299 299 301 302 303 303 304 305 303 303 305 304 305 308 309 309 309 310 310 311 310 311 311 311 311 309 308 307 307 303 304 307 308 309 309 309 309 309 309 308 308 309 310 310 309 310 311
271 272 273 275 278 279 280 281 283 285 286 289 289 288 287 286 286 285 285 286 289 292 292 294 295 295 297 298 298 299 302 304 305 304 304 302 303 304 303 303 304 307 309 307 307 309 310 311 310 311 311 310 308 311 310 311 308 305 308 308 308 308 308 308 308 308 308 308 308 308 308 308 309 309
273 273 274 275 276 278 279 280 283 285 287 288 289 289 289 288 286 285 285 285 286 290 293 294 295 296 296 298 300 299 302 302 303 304 304 303 302 301 299 297 299 303 309 307 307 306 307 310 309 310 310 310 309 311 310 307 304 305 308 308 308 307 307 308 307 307 307 307 307 307 307 307 308 308
273 273 274 275 277 279 279 280 283 285 287 288 289 289 289 289 289 288 286 285 286 287 290 294 295 296 297 298 300 301 300 301 303 304 303 302 301 300 300 300 299 303 307 306 305 303 302 307 309 308 309 309 308 309 308 306 305 306 307 307 307 307 307 307 307 307 306 306 306 306 306 306 306 307
273 273 273 274 275 277 280 281 282 284 286 287 288 288 288 288 289 289 289 289 287 288 288 292 295 297 299 298 299 301 301 302 301 302 302 302 302 302 301 301 302 302 306 306 303 301 298 304 305 306 307 306 307 307 305 306 306 306 306 306 307 306 306 306 306 306 306 306 306 306 306 306 305 305
273 273 273 273 274 276 279 280 281 284 286 286 286 286 286 286 286 288 288 289 289 289 289 290 294 299 301 299 301 301 302 301 299 301 300 301 300 300 301 302 302 302 307 306 303 300 295 296 305 304 301 299 302 304 305 305 306 306 306 306 306 306 306 305 305 305 305 305 305 305 305 305 305 305
274 274 274 274 274 275 277 280 282 283 285 285 285 285 285 285 286 286 287 288 290 291 292 292 293 300 302 303 303 303 304 303 303 303 302 302 301 297 293 295 297 299 302 304 303 299 294 293 301 301 297 297 300 301 304 304 305 306 306 306 306 306 305 305 305 305 305 305 305 305 305 304 304 304
275 275 274 274 274 275 277 281 282 283 284 284 284 284 285 285 286 286 288 289 290 292 295 295 296 300 303 302 302 301 304 304 303 299 297 295 295 297 298 296 296 298 298 301 304 300 294 292 301 297 295 297 299 297 300 303 305 306 306 306 306 305 305 305 304 305 305 305 305 305 304 304 304 303
275 275 275 275 275 276 277 280 282 283 283 281 282 283 284 284 285 285 287 289 290 291 293 295 296 299 301 301 301 302 302 301 299 298 299 297 300 299 296 294 296 297 296 293 300 298 294 292 297 294 293 296 297 297 298 298 303 305 306 306 306 305 305 305 304 304 304 304 304 304 304 304 303 302
274 275 277 277 276 277 277 281 282 283 281 280 280 281 283 283 283 284 286 288 289 292 293 294 295 297 299 300 301 301 301 299 298 301 299 299 301 299 296 294 296 297 297 295 296 297 294 291 293 292 291 293 292 296 295 297 299 303 304 305 305 305 304 304 304 304 304 304 304 304 304 303 302 302
274 274 276 278 278 279 280 283 283 284 283 281 281 282 282 282 283 284 286 286 287 290 293 294 296 296 297 299 301 298 298 298 298 304 302 301 301 299 297 297 296 295 296 297 297 298 292 292 293 295 293 295 289 288 294 295 298 301 302 304 305 303 304 304 304 304 304 304 304 303 303 303 302 302
274 274 274 276 280 282 282 283 283 283 284 282 282 283 283 282 282 285 285 286 287 289 293 294 295 296 297 297 299 299 298 298 298 302 302 302 302 300 298 297 297 296 297 298 297 299 294 296 294 297 299 298 294 291 291 293 295 298 300 301 301 302 302 302 302 303 303 303 303 303 303 302 302 301
273 273 274 275 279 282 283 283 284 284 284 284 283 284 283 284 285 286 285 286 286 287 290 292 293 295 295 295 297 298 299 299 300 301 300 303 304 301 299 298 297 299 299 298 297 296 292 296 295 296 298 298 292 290 289 291 290 295 297 300 300 300 301 301 301 303 302 302 303 303 303 302 302 302
274 274 274 275 277 280 281 282 283 284 285 285 284 284 287 288 288 286 286 286 286 287 291 293 293 294 294 295 296 296 297 298 298 300 300 302 304 303 301 300 298 297 297 298 298 297 295 294 296 296 297 293 289 294 290 290 290 292 295 298 301 301 300 300 300 300 301 302 302 303 303 302 302 302
275 276 276 277 279 281 282 283 284 285 285 285 285 287 288 288 288 287 286 286 286 287 291 292 292 293 294 295 295 295 296 298 298 299 300 300 300 299 300 303 303 301 300 299 298 297 297 296 295 297 296 296 292 291 293 292 289 289 292 296 296 297 298 300 299 299 299 300 300 302 302 302 301 302
277 277 277 278 281 281 282 283 284 285 285 284 286 288 288 288 287 286 286 285 286 287 290 292 292 293 294 295 296 296 296 297 298 299 298 299 297 297 297 292 288 291 296 298 298 298 298 296 295 297 297 296 294 292 293 294 291 291 293 293 294 295 297 298 299 297 297 298 298 299 298 298 300 300
279 280 281 281 282 282 283 284 284 285 285 286 286 287 288 287 286 285 285 285 286 288 290 292 293 293 294 296 297 298 297 296 295 292 291 290 289 289 290 289 290 291 294 295 297 297 298 297 296 295 296 297 296 295 295 292 291 292 293 291 292 294 296 297 297 297 296 297 298 297 298 298 298 297
280 282 283 283 283 283 283 283 282 283 285 286 286 287 287 286 286 285 285 285 286 289 291 292 293 294 294 296 296 296 296 295 292 293 293 292 291 291 291 291 290 291 293 294 296 297 297 296 295 295 296 296 297 295 294 291 290 291 292 294 295 292 293 296 297 297 295 296 296 296 297 298 298 296
279 280 282 283 283 283 283 284 284 284 285 285 286 286 286 286 285 285 286 286 287 290 292 292 294 295 295 295 294 294 294 294 294 294 293 294 293 292 292 292 289 290 291 292 294 295 294 294 295 294 295 295 295 295 293 293 292 291 292 293 293 291 292 294 295 296 296 296 295 295 295 296 296 296
279 279 282 284 284 283 282 283 283 283 284 285 285 285 285 285 286 286 286 287 289 292 293 294 293 293 293 293 294 294 295 294 294 293 294 294 293 292 292 291 289 289 290 291 291 289 289 292 294 295 296 296 295 292 292 293 293 292 292 293 293 294 292 293 294 294 293 294 294 294 295 295 296 295
280 280 281 282 283 282 282 282 282 283 284 284 285 285 285 285 285 286 286 286 289 292 292 291 291 291 292 293 294 294 294 294 293 293 294 294 294 292 294 292 290 289 289 290 291 290 289 290 290 291 291 292 294 292 293 292 292 293 292 292 293 292 291 294 294 293 291 293 294 294 293 294 295 295
281 280 281 283 282 282 282 282 282 283 284 284 284 285 285 285 285 286 287 288 290 291 291 291 291 291 292 293 293 294 293 293 293 293 293 293 293 293 293 292 290 291 290 290 291 290 289 289 289 289 288 287 287 291 295 295 292 292 293 293 293 293 292 293 294 292 292 294 294 293 292 293 293 295
278 279 281 283 283 283 284 284 284 284 284 284 284 285 285 285 286 286 288 289 291 291 291 291 292 292 292 292 293 293 293 292 292 293 293 293 293 294 294 293 291 290 290 290 290 290 290 290 290 289 289 290 290 290 291 290 294 292 292 292 293 294 292 291 293 292 291 293 294 293 293 293 292 293
267 268 269 272 276 280 283 284 284 285 285 285 285 285 285 285 286 287 288 290 291 291 292 291 291 291 292 292 292 293 293 292 292 292 292 293 293 293 294 294 291 291 291 291 290 290 290 291 291 291 290 290 290 290 292 291 291 293 292 291 292 293 292 291 291 292 292 292 294 294 293 292 292 292
263 265 266 267 268 269 269 274 281 285 285 285 285 285 285 286 286 288 289 290 291 291 291 292 292 292 292 292 292 292 292 292 292 291 292 293 293 293 293 293 291 291 291 291 291 290 290 291 292 292 292 290 290 290 292 287 287 289 293 292 291 292 292 291 291 291 292 293 293 293 294 294 294 293
261 263 264 265 266 266 268 270 271 275 282 285 285 286 286 286 288 289 290 290 291 291 291 292 291 291 292 292 292 292 292 292 292 291 292 292 292 292 293 293 292 291 291 291 290 290 291 291 292 293 293 292 291 292 290 282 287 287 289 292 291 291 291 290 290 290 291 292 292 293 294 294 295 294
260 261 263 264 264 265 266 267 268 269 271 278 284 286 286 286 288 289 289 290 291 291 291 291 291 291 291 292 292 292 291 291 291 291 291 292 292 292 292 292 291 291 291 289 290 290 290 291 292 293 294 294 293 294 294 287 287 288 287 290 291 291 291 291 290 291 291 290 291 291 291 288 283 284
260 261 263 264 264 265 265 266 267 267 269 271 274 283 286 286 287 288 289 290 290 291 291 291 291 291 291 292 292 292 292 291 291 291 291 292 291 292 292 292 291 291 290 289 288 289 290 291 292 293 295 296 292 291 291 288 285 287 288 289 291 292 292 292 291 291 290 291 291 290 290 288 289 284
260 260 262 263 264 265 265 265 266 267 267 268 270 275 283 287 288 288 289 290 290 291 291 291 290 290 291 291 291 292 291 291 291 291 291 291 290 291 291 290 291 290 290 288 288 289 289 291 292 290 288 288 289 290 289 287 286 286 287 288 288 290 291 291 292 291 290 289 290 290 289 288 289 286
261 261 262 263 264 264 265 265 266 266 266 267 268 270 274 284 289 288 289 289 290 290 291 291 290 291 291 291 291 291 291 291 291 291 290 291 291 290 290 291 291 290 290 289 289 290 290 289 288 288 288 289 290 291 290 290 290 287 287 287 287 288 289 290 290 290 291 290 289 288 288 288 287 287
261 261 262 263 264 264 265 265 265 266 266 267 267 268 270 277 287 289 289 289 290 290 290 290 291 291 291 291 291 291 291 291 291 291 290 290 290 290 290 291 291 290 290 290 290 289 287 289 289 289 289 290 291 293 292 291 291 287 286 286 286 287 287 288 289 289 289 289 290 291 291 290 287 285
261 262 263 263 264 264 265 265 265 266 266 266 266 267 268 270 277 287 289 289 290 290 290 291 290 291 291 291 291 291 291 291 291 290 290 290 290 291 291 291 290 290 290 290 289 288 288 288 289 289 289 289 290 291 291 290 289 287 286 286 286 285 285 286 286 288 288 289 289 289 290 290 291 290
261 262 263 263 264 264 264 265 265 265 266 266 266 266 266 267 269 271 278 286 289 289 290 290 290 291 291 291 291 290 291 290 291 291 291 290 290 290 290 291 290 290 290 289 288 287 287 287 288 289 289 290 289 290 290 290 289 286 285 285 284 285 285 285 284 285 286 287 288 288 289 289 289 286
Wind_Speed
14 12 19 13 14 13 14 15 14 13 12 11 11 11 12 11 14 14 12 14 11 12 9 13 11 12 14 15 14 16 16 17 20 18 19 18 17 25 31 37 35 36 34 29 31 32 29 30 31 32 33 33 32 32 31 30 31 30 30 28 27 27 27 27 25 24 24 25 25 25 26 27 29 27
13 16 13 13 13 13 15 13 15 13 13 12 12 12 12 12 15 12 12 16 11 10 12 11 8 7 11 13 14 15 15 20 24 19 19 18 19 29 29 34 43 40 36 33 30 28 27 25 26 29 31 31 30 31 30 30 29 28 28 28 28 27 27 26 25 25 24 24 24 25 25 25 25 26
15 17 16 16 14 16 14 16 15 13 12 11 11 11 11 13 13 13 11 14 16 8 12 12 9 8 12 12 14 15 14 20 26 20 18 19 24 32 28 29 32 39 38 36 34 32 29 27 25 26 28 29 29 30 30 30 28 27 27 28 29 27 27 26 26 24 24 23 23 23 24 24 24 25
13 13 16 14 14 13 14 14 14 13 11 12 11 11 12 13 13 12 13 15 20 12 9 11 13 10 11 12 13 14 14 20 27 18 18 21 30 25 23 31 27 28 31 33 34 35 33 30 27 26 26 27 28 28 28 28 28 27 27 27 27 27 26 25 25 24 23 23 22 23 23 22 24 24
11 14 14 16 14 13 17 15 15 13 12 11 11 11 11 12 12 12 13 15 17 18 8 9 12 11 10 11 14 15 15 14 14 20 17 22 23 23 21 22 30 29 28 28 30 32 32 29 27 27 26 25 26 26 27 27 27 27 27 28 27 27 27 26 25 24 23 23 23 22 22 23 23 24
15 17 16 18 14 14 15 15 17 14 11 11 11 12 13 12 12 11 13 14 14 19 14 10 9 10 12 13 16 18 17 16 15 15 18 18 19 21 20 20 22 33 31 30 31 32 32 30 28 27 25 25 24 25 26 26 27 27 26 26 26 26 26 25 24 24 24 24 23 23 23 23 24 25
16 17 16 18 15 13 16 18 17 15 13 11 11 13 12 13 12 12 13 13 14 16 17 11 10 11 12 13 13 17 17 17 19 20 20 19 15 16 18 19 19 29 29 30 29 30 32 33 32 29 27 25 25 25 25 25 24 25 25 24 25 25 25 24 24 24 24 24 24 25 25 24 24 24
15 17 17 17 15 14 15 17 16 14 12 12 11 13 13 12 13 12 12 13 13 13 15 13 10 11 11 11 13 15 15 16 16 19 19 20 20 18 17 17 17 23 28 28 29 29 28 28 30 31 30 28 26 25 25 23 23 24 24 23 24 24 24 24 25 25 24 25 25 26 25 25 25 25
14 15 16 16 14 14 15 16 15 13 14 11 11 11 11 11 11 11 12 12 12 13 14 15 10 9 11 10 10 16 16 12 16 14 17 18 19 20 18 16 17 26 30 29 28 28 27 27 27 28 28 28 26 26 25 24 23 23 23 23 23 24 24 24 25 25 25 25 24 25 26 27 25 24
16 17 19 18 15 14 15 15 14 14 14 11 10 10 9 8 9 11 11 11 12 13 14 14 14 7 12 10 9 14 18 17 14 13 12 13 17 19 16 14 14 15 16 16 20 22 23 24 26 26 27 27 26 25 24 24 23 23 23 24 24 24 24 24 25 25 25 26 24 25 26 26 24 23
17 17 17 18 18 17 17 17 16 13 12 10 10 11 11 10 11 11 11 10 12 13 13 13 14 12 11 10 10 11 15 17 19 20 14 11 11 15 19 16 15 16 17 19 24 22 20 23 20 24 25 26 26 24 23 23 24 22 23 24 24 24 24 24 25 25 25 25 25 24 24 24 24 23
18 17 17 18 19 20 18 16 16 16 12 9 9 10 10 9 10 10 9 10 11 12 13 13 13 12 12 10 10 13 13 14 11 15 20 17 15 15 16 17 17 16 16 15 14 17 18 18 20 22 22 24 25 25 22 23 23 24 24 24 25 25 26 26 27 27 27 26 25 24 23 22 22 23
17 17 17 17 18 21 24 28 24 22 18 10 8 8 8 8 9 8 8 9 11 12 12 13 13 13 12 13 11 14 17 19 18 15 15 15 17 18 16 16 17 18 19 15 15 15 17 17 16 16 15 17 23 22 24 20 25 25 25 25 26 26 26 25 25 25 25 26 26 25 24 23 22 22
16 18 17 17 25 27 28 28 29 29 29 24 13 9 7 8 9 9 9 9 9 11 13 14 13 13 14 13 14 12 18 19 19 20 20 20 16 15 15 12 12 13 17 17 16 15 14 16 14 14 15 14 18 14 16 15 17 23 26 26 26 27 26 27 26 26 26 27 27 26 25 25 24 24
16 15 16 16 19 23 25 24 29 29 29 27 22 21 18 13 11 9 10 10 10 12 12 12 13 14 14 15 16 13 15 16 19 19 17 18 16 17 18 15 7 10 19 17 17 15 14 16 16 15 15 15 14 15 15 20 22 25 25 26 26 26 27 26 26 24 24 24 25 26 26 25 25 24
16 16 14 14 13 13 16 17 17 21 28 30 25 24 23 21 23 20 13 11 10 13 13 12 14 15 15 15 16 16 12 16 17 18 18 19 20 19 21 19 21 17 20 18 17 14 11 14 15 14 14 14 13 14 17 23 24 25 26 26 26 25 25 26 26 26 25 25 25 25 25 25 24 24
15 15 14 15 16 14 22 19 16 15 12 16 23 22 23 23 24 23 24 21 16 13 15 14 15 17 16 16 16 17 14 14 17 17 18 17 19 20 21 18 15 15 15 16 15 16 11 14 16 16 13 13 12 13 20 25 25 24 24 25 27 27 27 26 26 25 25 25 25 24 25 25 25 25
15 17 15 15 15 15 15 14 15 13 12 11 10 11 11 11 14 18 21 22 25 23 18 16 15 17 16 16 15 17 18 18 17 19 20 19 18 18 18 14 16 16 19 21 16 13 8 7 14 15 10 10 12 11 17 25 27 27 27 26 26 26 27 27 27 26 26 26 25 25 24 24 24 24
14 17 16 16 17 16 16 12 14 14 12 11 10 11 12 12 12 11 11 11 12 13 16 18 18 16 17 18 18 18 19 22 19 21 26 25 19 12 10 10 9 10 9 12 14 14 7 4 13 11 9 8 10 9 16 23 26 29 28 28 27 28 27 26 26 25 25 25 26 26 25 25 25 25
13 14 16 16 17 18 17 18 25 22 15 10 11 12 13 12 12 12 13 15 17 17 15 15 17 16 19 20 19 20 20 19 18 9 9 13 14 16 16 14 13 14 9 12 16 12 10 5 12 8 7 9 10 8 8 20 27 27 28 28 28 27 27 27 26 26 26 26 26 26 26 26 26 25
15 15 16 16 16 17 17 18 22 23 22 15 15 13 13 12 12 13 11 14 21 25 27 25 25 26 24 23 26 29 30 19 15 15 17 17 17 17 16 13 14 15 11 5 9 12 12 6 10 10 6 9 10 10 9 8 20 29 27 27 27 26 27 28 28 27 27 27 27 27 27 27 26 27
12 15 24 23 18 17 17 24 28 27 22 16 16 15 15 15 14 14 11 10 14 22 26 27 28 27 24 25 25 28 28 26 23 23 22 20 18 18 17 17 16 14 13 9 9 13 11 7 7 10 5 6 2 7 5 8 7 17 21 26 27 27 27 28 29 28 28 27 26 26 27 26 25 20
12 13 17 25 22 20 18 24 23 23 19 15 15 16 15 16 16 14 10 10 12 13 12 15 17 17 20 21 19 18 26 29 25 23 26 22 22 21 19 18 15 12 10 12 15 16 11 12 9 14 9 8 1 1 6 7 10 10 11 15 19 27 28 29 28 29 29 28 27 26 26 25 22 13
10 11 14 17 24 26 27 27 28 26 25 17 15 14 15 16 17 10 8 10 10 15 14 13 13 13 12 13 16 18 19 21 22 20 21 22 21 21 19 18 20 21 18 17 17 16 11 16 13 13 15 16 11 6 5 8 9 11 11 12 11 19 24 25 23 28 27 26 26 25 25 25 22 12
11 10 12 12 18 24 25 26 26 26 26 24 16 15 15 14 12 10 9 12 14 14 15 12 11 11 10 10 13 16 17 17 17 16 17 23 23 22 21 20 19 17 13 15 16 12 10 13 15 12 10 8 5 7 4 6 3 6 9 12 12 10 10 12 10 14 20 26 27 28 28 27 27 18
10 12 12 12 17 25 27 27 27 27 26 27 17 16 17 15 16 13 11 10 10 12 13 10 10 10 11 11 12 14 15 15 14 13 16 18 19 20 24 25 23 18 16 20 28 19 17 14 16 15 11 8 5 11 9 6 5 7 9 11 13 14 14 13 12 14 14 14 16 21 23 28 26 26
12 11 13 14 21 23 24 25 25 25 25 22 15 20 20 22 23 16 9 10 10 12 11 10 10 11 12 13 13 14 13 14 13 12 14 14 12 11 12 19 23 22 20 21 21 17 18 16 18 22 19 15 13 10 12 11 5 4 5 8 8 8 10 12 13 11 11 12 11 20 23 26 27 26
11 11 13 14 21 23 24 25 24 23 21 14 16 18 20 21 17 10 10 9 9 11 10 10 11 11 12 13 15 15 15 15 16 16 15 15 12 9 9 5 11 9 11 23 24 19 18 16 16 17 18 17 16 17 16 10 7 11 12 7 7 8 9 11 11 10 10 11 11 11 10 11 15 17
11 15 23 25 24 23 23 24 23 19 21 25 23 20 19 17 9 9 9 9 9 12 11 11 12 12 14 16 17 17 15 14 10 7 7 7 7 8 8 7 6 10 14 14 15 15 15 16 18 16 14 14 15 12 13 13 12 13 12 12 9 9 10 10 12 12 12 10 11 12 14 14 13 13
25 24 24 29 28 24 21 15 12 10 9 17 21 19 17 10 9 8 8 9 11 11 11 12 15 14 13 14 13 13 12 12 9 11 12 11 8 9 10 9 7 7 10 15 17 14 12 12 15 17 16 15 15 14 13 13 9 11 12 15 12 7 6 10 11 11 12 13 13 13 12 13 15 15
12 14 16 14 20 18 20 20 17 15 14 12 10 9 10 10 9 8 9 10 11 11 12 12 13 13 11 10 12 13 13 14 12 12 13 14 11 9 9 11 10 9 7 8 9 9 9 11 13 16 16 14 12 13 13 14 15 13 13 11 12 16 13 11 10 11 12 11 8 9 8 10 10 13
12 10 13 15 12 13 12 12 10 10 10 10 9 9 9 9 9 10 12 14 12 11 10 10 7 9 10 11 13 13 14 15 13 12 13 14 12 10 12 11 10 10 10 9 7 3 4 9 13 14 16 17 17 11 9 12 15 16 14 13 13 5 8 15 14 11 11 10 11 12 12 12 12 11
12 8 8 8 7 8 9 9 9 10 9 9 10 11 9 8 8 8 7 10 11 10 8 7 8 11 12 13 14 15 14 13 13 12 13 13 14 11 13 15 13 13 14 13 13 9 6 5 4 5 5 6 8 14 16 14 12 14 16 15 13 11 10 12 12 13 12 12 13 11 10 10 10 12
7 6 6 6 8 9 9 10 10 10 9 9 9 9 9 9 8 8 8 10 10 9 9 9 11 12 13 13 14 14 14 11 12 14 16 13 13 14 14 13 13 13 15 15 14 13 9 8 8 7 7 6 4 8 14 16 14 14 15 16 16 15 12 12 12 13 15 17 16 13 12 12 11 11
10 8 7 5 7 7 7 8 9 8 8 8 7 7 7 7 8 8 8 9 9 8 10 11 12 12 13 14 15 15 14 15 13 13 13 14 14 15 15 14 13 12 13 14 15 14 14 14 12 9 7 6 5 3 8 5 14 13 10 11 14 15 13 11 13 12 14 10 10 15 15 12 11 11
12 11 11 11 11 8 5 7 8 8 8 8 8 7 7 7 7 8 9 9 9 9 10 11 11 12 13 14 15 15 15 15 14 14 13 13 16 15 14 15 15 14 13 14 14 13 14 16 16 16 15 12 13 12 15 11 6 14 17 13 11 10 11 12 12 13 14 13 14 15 15 15 14 11
12 11 11 11 11 10 10 12 9 7 8 8 8 7 7 7 6 8 9 9 10 11 11 11 12 13 13 14 14 14 14 15 14 15 15 14 14 13 14 12 14 15 14 13 13 14 14 15 16 17 18 16 17 20 16 5 2 3 13 15 13 11 12 11 11 12 13 15 14 13 15 13 11 11
11 11 11 12 12 12 11 11 11 12 9 7 7 7 7 6 6 7 8 9 10 10 10 11 11 11 12 12 13 13 13 14 14 15 14 14 13 13 14 14 13 14 14 13 13 14 15 16 18 18 20 21 22 20 14 2 6 3 6 10 14 12 11 12 13 15 14 12 14 13 9 10 12 11
11 12 11 11 11 11 11 11 11 11 12 12 8 7 6 5 5 7 8 9 10 10 10 11 11 11 12 13 13 14 14 13 14 15 15 14 15 16 14 13 13 12 13 13 13 14 14 16 18 20 21 21 22 20 14 12 11 7 6 11 13 14 13 15 16 13 11 13 12 6 4 2 9 7
13 10 9 10 11 11 10 11 10 10 11 10 11 9 6 5 6 7 9 10 10 11 11 11 12 12 12 13 14 14 15 17 16 15 16 15 15 15 15 13 14 14 13 14 14 15 17 18 19 19 18 11 5 8 9 8 5 5 8 11 21 21 17 14 13 13 13 11 9 9 10 6 7 1
11 11 9 11 10 10 10 10 10 11 10 11 10 11 9 7 8 8 9 10 10 11 10 11 11 12 12 12 13 14 14 14 14 14 14 14 14 14 16 15 13 14 16 16 17 17 18 17 11 9 10 10 12 14 11 9 9 11 14 11 14 17 14 16 14 13 11 10 11 12 11 11 12 6
14 11 13 13 12 12 11 10 11 10 11 10 10 10 11 9 8 11 11 12 12 11 10 10 11 12 12 12 12 13 15 15 13 14 14 14 14 14 17 15 15 15 17 18 18 15 8 8 11 12 11 11 13 15 17 19 17 10 8 8 9 11 13 16 13 12 12 14 14 11 9 5 4 9
14 13 14 13 12 11 12 12 12 11 10 11 10 11 10 10 6 9 8 10 10 10 9 9 9 11 11 11 12 12 13 14 14 14 14 15 15 16 15 16 16 16 15 12 9 9 10 11 11 11 11 12 14 15 18 16 11 11 11 10 11 9 7 9 14 14 15 19 21 19 17 15 10 11
14 14 14 13 13 13 13 13 13 12 11 10 11 10 10 10 10 5 7 8 9 10 10 10 10 10 11 12 11 12 12 13 13 14 15 15 15 16 16 15 13 13 13 12 12 12 11 12 13 14 14 15 12 12 13 12 11 11 12 10 8 10 11 8 7 7 8 15 20 18 18 19 20 8
14 13 14 14 14 13 13 13 13 13 12 12 10 10 12 11 9 10 9 4 5 9 9 10 10 11 11 11 12 12 12 12 13 13 14 14 14 14 14 14 13 14 14 13 14 13 12 13 12 12 13 13 11 12 11 11 12 10 11 13 14 14 12 11 12 13 12 10 13 19 16 16 14 5
Wind_Direction
265 262 260 257 262 262 267 261 250 242 239 236 239 236 238 241 255 271 273 268 259 272 255 267 235 217 206 201 198 194 193 190 183 191 194 193 188 188 184 171 167 165 167 171 166 163 164 164 165 163 161 165 168 170 175 176 177 176 176 176 175 179 175 176 177 172 172 176 176 174 175 175 174 173
262 260 256 254 259 259 260 262 255 240 238 235 235 237 236 233 245 254 262 271 254 266 272 272 278 231 205 197 190 187 189 177 179 185 190 184 185 181 183 183 166 162 163 164 165 159 156 160 167 166 161 165 168 171 172 174 176 175 175 172 176 176 173 176 175 176 175 176 176 176 176 176 172 173
253 251 252 251 253 256 261 262 256 242 235 233 233 239 238 235 237 247 251 266 267 210 264 274 273 248 204 194 185 182 177 174 177 180 179 177 169 164 166 171 168 157 159 159 158 155 157 163 170 165 161 167 169 170 170 172 174 174 173 173 175 174 173 174 176 177 175 177 177 176 176 175 172 173
259 260 259 255 255 255 258 259 257 247 237 231 236 236 238 238 234 238 245 247 267 245 238 268 294 296 234 183 185 174 167 174 172 171 170 164 156 156 156 154 156 153 154 155 156 154 158 164 170 165 164 168 170 170 172 172 172 172 173 173 173 171 173 175 176 176 175 175 174 174 174 172 171 172
266 268 263 261 261 266 265 267 262 248 236 232 233 236 238 237 234 230 238 248 257 272 229 261 270 282 261 198 180 166 163 166 168 158 153 154 157 151 151 152 152 154 156 158 157 153 156 163 165 162 164 169 171 172 173 171 171 171 172 173 171 170 173 176 175 175 174 172 171 170 170 169 169 167
259 260 266 266 261 251 253 255 254 247 235 230 232 236 236 238 234 226 238 242 253 266 272 260 262 269 253 222 178 166 164 160 152 145 146 154 154 149 148 150 157 158 161 161 160 157 158 162 162 161 163 168 171 172 172 171 171 172 172 171 170 170 171 171 172 172 171 169 167 167 167 167 167 165
263 260 253 256 256 258 260 261 253 244 234 229 232 238 240 241 235 229 231 244 248 255 265 255 265 257 259 239 190 165 161 160 152 146 152 149 146 140 147 151 156 158 159 161 162 161 163 163 162 162 164 167 170 171 172 171 173 172 171 170 168 168 168 167 167 169 169 168 166 165 168 167 166 163
260 260 260 255 253 256 258 259 257 244 230 227 229 238 240 240 241 231 237 236 245 253 261 256 242 251 246 246 186 163 155 156 149 149 151 146 148 148 152 153 152 158 158 162 163 163 164 163 163 163 164 166 168 171 171 171 171 172 170 168 167 166 166 166 166 169 169 167 168 168 169 168 166 166
272 268 262 258 252 255 257 260 257 245 229 220 229 236 240 239 241 240 235 239 240 248 250 258 247 243 239 245 205 161 153 160 143 149 153 151 152 153 154 152 156 160 162 163 164 164 164 163 163 164 165 164 166 169 171 171 171 170 168 166 167 166 165 165 166 169 169 167 169 169 170 167 164 160
265 267 268 272 268 258 257 259 263 248 225 218 222 233 239 238 243 245 241 240 244 242 246 248 257 240 232 236 228 169 154 153 145 144 153 152 152 149 147 152 155 161 162 162 163 163 163 163 164 165 165 165 166 168 169 170 170 169 167 166 167 166 165 166 166 169 169 168 168 167 168 167 163 158
267 262 261 258 259 260 255 256 259 257 232 213 217 227 237 239 244 247 247 242 238 241 242 244 245 245 233 216 203 183 162 158 156 151 152 152 155 153 151 154 158 161 165 168 166 165 166 165 165 165 165 165 165 166 169 170 169 168 167 166 166 165 166 167 168 169 169 167 166 167 166 166 162 160
270 268 261 255 252 251 253 254 254 259 251 225 220 225 230 230 234 241 248 249 244 237 237 235 239 234 221 228 203 169 165 155 161 161 153 154 155 156 155 156 160 162 160 161 165 159 155 159 163 163 162 166 167 166 169 171 169 168 169 168 167 167 168 169 170 171 169 164 165 166 165 163 162 161
261 265 264 257 249 250 252 253 253 254 254 239 222 219 232 243 250 256 252 251 243 242 235 234 231 232 224 205 202 178 167 165 163 162 154 157 160 155 154 161 163 161 158 162 163 164 164 164 167 168 168 172 169 170 169 174 172 170 170 170 169 169 167 168 169 168 167 163 163 165 163 162 162 161
253 255 256 259 261 260 257 256 255 255 253 245 227 219 218 231 246 249 256 260 263 246 233 230 225 227 219 207 187 193 173 168 161 161 161 157 161 150 146 147 161 160 155 158 164 168 166 162 165 170 172 171 168 169 172 176 174 172 170 170 170 168 168 167 169 170 167 165 165 165 165 164 164 164
262 258 255 253 254 256 256 256 255 255 252 246 235 231 230 227 233 245 249 251 251 262 241 228 224 223 218 205 180 187 179 165 161 160 158 150 150 153 150 156 152 184 160 164 163 166 169 164 169 174 173 170 173 171 177 171 171 171 171 170 171 170 167 167 168 167 166 166 166 166 166 166 165 165
265 269 274 275 273 257 250 250 253 252 248 245 238 235 238 237 239 238 238 246 252 251 256 236 223 218 215 200 183 171 180 162 162 159 153 155 157 161 162 163 168 175 167 160 163 165 169 169 166 169 172 172 175 172 169 169 172 172 173 172 172 167 166 167 168 169 168 168 167 166 165 165 165 166
258 262 265 265 259 266 264 261 256 256 254 243 241 241 243 241 241 245 245 245 243 248 255 255 227 215 205 197 190 164 171 161 160 156 158 158 160 166 163 167 158 161 161 152 159 165 173 169 170 171 174 166 166 167 170 172 170 172 172 172 170 169 168 169 170 170 170 169 168 167 167 166 166 167
257 259 259 261 259 261 261 252 258 261 249 244 236 236 236 235 239 243 248 251 248 240 242 252 250 217 200 196 186 169 160 164 162 161 160 163 162 167 169 160 156 161 167 165 158 158 174 182 166 172 161 151 161 166 173 172 172 172 172 173 171 172 171 172 173 172 171 169 168 168 168 168 167 168
247 253 255 256 259 259 258 250 252 256 252 242 238 238 240 240 242 242 244 249 254 243 235 237 250 236 207 196 183 168 168 166 168 171 166 166 163 138 92 75 118 147 170 150 148 162 161 177 164 167 141 141 155 163 173 174 177 174 175 174 175 173 173 173 173 173 172 172 171 170 169 168 169 169
243 250 251 251 251 254 256 253 250 251 256 258 247 243 246 249 249 248 245 248 258 259 246 235 237 240 212 198 184 172 170 171 165 149 113 102 114 125 135 142 153 161 179 168 162 160 160 179 162 145 136 137 154 162 171 185 178 179 177 176 174 174 173 173 174 175 175 174 173 171 170 170 171 171
255 253 252 252 253 249 252 256 255 252 253 262 262 256 251 251 254 258 256 256 261 261 254 244 239 240 227 204 184 171 170 162 140 129 142 147 148 148 146 148 156 169 165 202 168 142 152 179 152 133 150 153 160 171 170 191 192 178 178 175 175 176 176 175 175 176 177 177 176 174 172 172 172 171
245 254 252 249 248 247 242 243 248 249 248 250 252 256 257 256 256 259 259 267 268 264 252 240 236 237 226 201 189 176 163 153 156 158 164 161 155 155 155 159 168 162 171 179 149 138 157 142 134 119 98 89 80 159 159 164 192 189 177 178 177 178 179 178 178 178 178 178 178 176 173 173 171 170
241 246 253 252 250 250 245 243 244 242 239 238 240 243 248 252 253 253 259 265 275 275 253 234 230 233 221 199 182 173 163 162 172 172 162 164 163 164 166 159 150 148 182 188 168 150 151 149 161 141 135 155 170 92 156 170 172 183 181 182 184 183 181 181 180 180 179 179 178 175 173 172 168 170
227 240 250 251 249 248 248 249 249 249 246 243 239 236 238 243 250 255 265 265 271 277 251 226 214 213 206 199 174 165 168 172 172 178 165 162 166 167 163 161 165 173 181 183 178 159 160 161 160 170 169 163 173 184 169 175 180 183 176 175 182 191 185 181 182 181 178 177 176 175 174 173 170 168
234 233 243 246 248 248 246 245 245 246 245 242 239 236 237 238 253 267 267 270 272 275 258 217 199 193 181 179 173 167 170 175 182 175 171 169 170 164 162 166 178 180 164 164 168 131 154 165 165 168 170 164 112 128 151 144 164 175 175 173 175 174 174 184 178 181 180 177 178 178 176 175 175 171
228 235 240 240 244 246 248 248 248 248 247 242 238 238 238 241 245 250 253 264 269 271 255 209 187 176 172 173 170 166 170 178 177 171 174 180 176 172 168 171 175 172 169 171 167 157 148 167 165 166 167 146 137 153 148 169 171 185 173 178 176 176 175 174 178 181 183 185 183 182 180 178 178 177
234 229 236 240 245 248 247 246 245 245 245 245 236 235 234 236 238 242 248 252 256 263 242 197 175 173 172 168 167 164 172 176 175 173 177 179 171 175 193 183 176 174 164 163 174 161 159 166 171 170 172 170 152 159 166 166 171 156 151 172 171 168 172 169 177 180 180 179 182 183 179 180 181 182
244 233 234 235 239 243 246 249 249 247 247 245 244 237 235 234 237 238 244 247 251 253 224 189 171 176 174 170 169 171 174 175 179 177 174 174 172 170 167 103 42 37 141 165 169 167 167 157 169 181 169 164 162 170 181 173 139 167 165 160 161 168 172 175 174 170 175 175 168 174 177 187 189 184
268 248 241 239 240 242 245 247 248 247 246 244 243 239 233 232 228 231 238 247 252 243 210 187 173 175 181 179 178 171 168 166 146 116 101 85 78 93 88 88 97 123 144 164 172 173 165 162 168 167 164 172 175 177 165 169 161 177 168 150 175 185 176 176 173 174 174 173 176 177 184 181 183 189
277 273 264 250 243 240 242 245 246 250 245 239 236 232 229 228 229 229 238 247 244 230 202 189 179 181 179 182 169 154 148 145 137 135 134 132 124 124 122 101 96 114 148 168 175 175 168 161 161 164 170 175 177 167 170 148 157 173 171 181 169 117 172 173 178 174 170 179 184 185 185 184 187 183
282 275 275 255 238 230 234 238 243 247 249 244 229 225 226 228 228 230 234 241 240 224 199 193 186 178 168 147 142 154 157 159 160 155 155 155 150 136 133 132 125 122 138 160 171 167 158 156 162 166 168 172 173 174 167 163 164 165 176 173 154 179 183 171 171 177 182 177 171 178 182 186 186 186
279 271 279 274 240 228 230 238 234 235 234 231 227 223 224 227 225 231 238 244 244 225 207 189 173 150 150 154 154 155 166 170 161 155 159 160 150 143 134 131 139 136 141 148 152 95 115 158 164 174 176 169 173 161 150 166 168 172 173 175 185 161 136 176 178 177 167 159 172 188 190 187 187 189
271 260 269 258 232 212 223 226 232 232 227 227 224 223 224 225 226 232 229 235 229 213 198 177 158 162 156 160 160 161 166 166 162 161 160 163 155 157 158 156 150 151 151 160 166 162 140 130 104 114 130 157 166 153 157 167 179 172 170 177 178 173 176 181 172 167 159 167 187 184 188 197 198 192
242 229 256 248 221 217 216 229 231 232 226 224 218 220 220 223 231 230 233 231 216 195 176 163 163 167 165 160 164 163 162 157 163 167 162 162 163 162 167 157 161 162 160 162 165 162 141 124 111 93 79 73 66 172 177 174 171 175 175 173 175 184 179 173 178 170 173 183 180 179 195 201 200 197
16 338 308 253 207 210 219 222 225 222 226 224 225 227 221 222 226 231 232 222 201 186 177 174 172 169 169 165 165 167 165 164 164 169 168 161 168 175 169 162 161 163 162 163 167 164 157 151 143 130 97 96 119 269 300 268 165 168 168 178 183 177 166 173 170 172 181 185 178 190 199 196 197 203
11 2 2 359 351 331 273 223 218 225 226 230 227 228 226 226 220 222 227 211 194 187 182 177 174 172 172 168 168 167 167 166 166 166 169 171 174 178 176 168 162 167 168 169 167 162 163 162 161 162 165 167 178 186 217 225 201 173 163 175 181 176 169 168 174 175 179 186 193 194 194 197 202 191
2 2 3 356 352 353 347 335 317 257 224 223 224 221 225 225 222 220 224 207 196 190 187 178 178 178 176 171 168 168 165 166 167 170 173 176 177 174 173 171 164 166 168 171 165 164 166 169 173 171 173 177 187 198 197 108 207 249 175 165 169 176 163 163 167 183 194 191 193 198 201 198 197 191
358 355 358 355 349 346 340 336 333 332 310 254 229 231 221 224 222 223 213 208 200 194 187 183 181 179 176 169 167 166 167 170 168 171 176 170 169 175 178 172 168 171 172 163 166 171 174 174 179 182 179 186 192 196 180 167 168 217 200 159 161 166 162 163 178 190 191 192 200 201 195 203 208 202
360 353 353 350 346 344 340 336 335 324 322 318 287 235 228 215 215 210 206 204 200 193 187 183 181 179 175 172 169 167 169 171 173 175 174 176 176 176 178 172 164 167 163 165 170 176 179 183 186 188 190 191 196 193 174 163 183 154 152 166 158 160 177 180 185 185 178 185 201 181 181 76 57 67
355 342 342 351 344 339 335 336 329 326 320 317 317 300 246 220 202 203 202 201 196 194 188 185 179 176 179 176 174 172 172 174 178 178 179 178 179 175 173 171 167 166 168 172 174 181 187 193 190 191 193 187 152 109 114 115 82 117 169 190 179 177 181 177 181 177 188 189 162 161 185 172 187 98
344 348 348 352 337 338 337 331 329 327 320 319 313 314 298 234 210 202 202 196 194 190 189 185 178 177 178 177 177 172 173 177 178 177 178 177 175 176 173 166 164 169 173 180 184 186 195 197 180 127 102 109 122 107 105 120 157 178 189 188 193 191 177 183 181 176 175 156 160 182 185 187 199 166
351 347 354 353 351 347 344 340 337 332 327 324 321 319 315 278 222 205 201 199 192 193 189 183 179 179 178 177 179 177 176 177 177 178 177 176 175 176 174 172 172 177 182 184 186 189 165 116 120 129 142 135 139 156 178 186 189 165 162 166 180 197 189 183 182 177 167 159 166 176 182 172 137 207
355 355 353 351 348 346 349 347 344 343 333 331 331 329 323 317 264 205 204 198 193 191 190 183 182 181 178 177 179 181 178 176 176 177 177 177 175 175 179 184 182 178 181 179 163 140 138 155 153 149 158 169 182 185 192 189 169 152 163 165 179 176 181 188 183 177 176 185 185 182 178 177 159 209
352 352 352 350 351 349 350 350 348 348 343 336 331 336 342 341 326 270 205 194 194 190 186 184 181 182 181 178 180 182 182 178 176 176 178 179 179 180 181 181 174 170 172 163 160 165 160 159 169 170 175 192 187 187 192 167 162 168 168 162 144 156 178 174 177 186 192 200 204 203 197 193 198 186
350 350 351 351 351 351 351 351 352 349 349 346 344 345 350 348 342 339 342 314 216 193 188 186 183 184 181 180 179 182 184 179 177 178 178 178 180 181 180 173 169 170 173 170 161 161 165 171 176 180 189 189 181 190 181 167 167 147 148 156 167 176 174 165 173 188 200 211 211 205 204 205 210 175